This is the latest recevied weather packets stored in our database for station/object KC0AFB. If no packets are shown the sender has not sent any weather packets the latest 10 day(s).
| Time | Temp. | Humidity | Pressure | Rain* | Wind** | Luminosity | Snow |
|---|---|---|---|---|---|---|---|
| 1777837942 | 22.22° C | 32% | 1007 hPa | 0 mm | - | 684 W/m² | - |
| 1777837640 | 22.22° C | 31% | 1007.2 hPa | 0 mm | - | 671 W/m² | - |
| 1777837335 | 22.22° C | 32% | 1007.1 hPa | 0 mm | - | 641 W/m² | - |
| 1777837032 | 22.22° C | 33% | 1007.5 hPa | 0 mm | - | 644 W/m² | - |
| 1777836728 | 21.67° C | 32% | 1007.2 hPa | 0 mm | - | 664 W/m² | - |
| 1777836424 | 21.67° C | 32% | 1007.7 hPa | 0 mm | - | 690 W/m² | - |
| 1777836119 | 22.22° C | 34% | 1007.8 hPa | 0 mm | - | 688 W/m² | - |
| 1777835815 | 21.67° C | 31% | 1007.7 hPa | 0 mm | - | 660 W/m² | - |
| 1777835513 | 21.67° C | 33% | 1007.9 hPa | 0 mm | - | 662 W/m² | - |
| 1777835210 | 21.11° C | 33% | 1008.2 hPa | 0 mm | - | 691 W/m² | - |
| 1777834907 | 21.67° C | 31% | 1008.4 hPa | 0 mm | - | 694 W/m² | - |
| 1777834603 | 21.11° C | 34% | 1008.3 hPa | 0 mm | - | 699 W/m² | - |
| 1777834299 | 21.67° C | 35% | 1008.5 hPa | 0 mm | - | 704 W/m² | - |
| 1777833994 | 21.67° C | 34% | 1008.6 hPa | 0 mm | - | 714 W/m² | - |
| 1777833691 | 21.11° C | 34% | 1008.6 hPa | 0 mm | - | 707 W/m² | - |
| 1777833387 | 21.11° C | 34% | 1008.9 hPa | 0 mm | - | 700 W/m² | - |
| 1777833085 | 20.56° C | 35% | 1009.3 hPa | 0 mm | - | 696 W/m² | - |
| 1777832783 | 21.11° C | 37% | 1009.4 hPa | 0 mm | - | 679 W/m² | - |
| 1777832481 | 20.56° C | 34% | 1009.3 hPa | 0 mm | - | 712 W/m² | - |
| 1777832177 | 20.56° C | 35% | 1009.7 hPa | 0 mm | - | 727 W/m² | - |
| 1777831874 | 20° C | 36% | 1009.7 hPa | 0 mm | - | 748 W/m² | - |
| 1777831571 | 20° C | 37% | 1010 hPa | 0 mm | - | 731 W/m² | - |
| 1777831269 | 20° C | 36% | 1009.9 hPa | 0 mm | - | 738 W/m² | - |
| 1777830965 | 20° C | 36% | 1010.1 hPa | 0 mm | - | 733 W/m² | - |
| 1777830663 | 20° C | 37% | 1010.2 hPa | 0 mm | - | 764 W/m² | - |
* Rain latest hour (hover to see other rain measurements)
** Current wind speed in m/s (hover to see current wind gust speed)